Time,TemperatureF,DewpointF,PressureIn,WindDirection,WindDirectionDegrees,WindSpeedMPH,WindSpeedGustMPH,Humidity,HourlyPrecipIn,Conditions,Clouds,dailyrainin,SoftwareType,DateUTC
2013-02-23 00:05:00,44.1,41.0,29.84,North,5,0.0,-999.0,88,-99.99,,,0.00,weatherlink.com 1.10,2013-02-23 06:05:00,
2013-02-23 00:20:00,43.7,41.0,29.85,NW,313,1.0,-999.0,89,-99.99,,,0.00,weatherlink.com 1.10,2013-02-23 06:20:00,
2013-02-23 00:35:00,43.4,40.0,29.86,NW,313,0.0,-999.0,89,-99.99,,,0.00,weatherlink.com 1.10,2013-02-23 06:35:00,
2013-02-23 00:50:00,43.1,40.0,29.86,NW,313,0.0,-999.0,89,-99.99,,,0.00,weatherlink.com 1.10,2013-02-23 06:50:00,
2013-02-23 01:05:00,42.9,40.0,29.86,NW,313,0.0,-999.0,90,-99.99,,,0.00,weatherlink.com 1.10,2013-02-23 07:05:00,
2013-02-23 01:20:00,42.9,40.0,29.86,NW,313,0.0,-999.0,90,-99.99,,,0.00,weatherlink.com 1.10,2013-02-23 07:20:00,
2013-02-23 01:35:00,42.5,40.0,29.85,NNW,341,2.0,-999.0,89,-99.99,,,0.00,weatherlink.com 1.10,2013-02-23 07:35:00,
2013-02-23 01:50:00,42.2,39.0,29.85,NNE,13,0.0,-999.0,89,-99.99,,,0.00,weatherlink.com 1.10,2013-02-23 07:50:00,
2013-02-23 02:05:00,41.8,38.0,29.84,North,355,1.0,-999.0,86,-99.99,,,0.00,weatherlink.com 1.10,2013-02-23 08:05:00,
2013-02-23 02:20:00,41.5,38.0,29.84,North,5,2.0,-999.0,86,-99.99,,,0.00,weatherlink.com 1.10,2013-02-23 08:20:00,
2013-02-23 02:35:00,41.1,37.0,29.84,North,350,2.0,-999.0,86,-99.99,,,0.00,weatherlink.com 1.10,2013-02-23 08:35:00,
2013-02-23 02:50:00,40.8,37.0,29.83,North,360,2.0,-999.0,87,-99.99,,,0.00,weatherlink.com 1.10,2013-02-23 08:50:00,
2013-02-23 03:05:00,40.6,37.0,29.83,North,355,1.0,-999.0,87,-99.99,,,0.00,weatherlink.com 1.10,2013-02-23 09:05:00,
2013-02-23 03:20:00,40.3,37.0,29.82,NNW,338,2.0,-999.0,87,-99.99,,,0.00,weatherlink.com 1.10,2013-02-23 09:20:00,
2013-02-23 03:35:00,40.1,37.0,29.82,North,10,0.0,-999.0,87,-99.99,,,0.00,weatherlink.com 1.10,2013-02-23 09:35:00,
2013-02-23 03:50:00,39.8,37.0,29.82,North,355,3.0,-999.0,88,-99.99,,,0.00,weatherlink.com 1.10,2013-02-23 09:50:00,
2013-02-23 04:05:00,39.3,36.0,29.83,ENE,59,0.0,-999.0,88,-99.99,,,0.00,weatherlink.com 1.10,2013-02-23 10:05:00,
2013-02-23 04:20:00,38.8,36.0,29.83,North,355,1.0,-999.0,88,-99.99,,,0.00,weatherlink.com 1.10,2013-02-23 10:20:00,
2013-02-23 04:35:00,38.0,35.0,29.82,NNE,15,0.0,-999.0,88,-99.99,,,0.00,weatherlink.com 1.10,2013-02-23 10:35:00,
2013-02-23 04:50:00,37.1,34.0,29.82,NNE,16,0.0,-999.0,89,-99.99,,,0.00,weatherlink.com 1.10,2013-02-23 10:50:00,
2013-02-23 05:05:00,36.3,34.0,29.82,NNE,16,0.0,-999.0,90,-99.99,,,0.00,weatherlink.com 1.10,2013-02-23 11:05:00,
2013-02-23 05:20:00,35.6,33.0,29.83,NNE,16,0.0,-999.0,90,-99.99,,,0.00,weatherlink.com 1.10,2013-02-23 11:20:00,
2013-02-23 05:35:00,35.1,33.0,29.83,NNE,16,0.0,-999.0,91,-99.99,,,0.00,weatherlink.com 1.10,2013-02-23 11:35:00,
2013-02-23 05:50:00,34.6,32.0,29.83,NNE,15,0.0,-999.0,91,-99.99,,,0.00,weatherlink.com 1.10,2013-02-23 11:50:00,
2013-02-23 06:05:00,34.4,32.0,29.83,NNE,15,0.0,-999.0,91,-99.99,,,0.00,weatherlink.com 1.10,2013-02-23 12:05:00,
2013-02-23 06:20:00,33.8,32.0,29.83,NNE,15,0.0,-999.0,92,-99.99,,,0.00,weatherlink.com 1.10,2013-02-23 12:20:00,
2013-02-23 06:36:00,33.2,31.0,29.83,NNE,16,0.0,-999.0,92,-99.99,,,0.00,weatherlink.com 1.10,2013-02-23 12:36:00,
2013-02-23 06:50:00,33.0,31.0,29.84,NNE,16,0.0,-999.0,93,-99.99,,,0.00,weatherlink.com 1.10,2013-02-23 12:50:00,
2013-02-23 07:05:00,33.7,32.0,29.83,NNE,15,0.0,-999.0,94,-99.99,,,0.00,weatherlink.com 1.10,2013-02-23 13:05:00,
2013-02-23 07:20:00,34.4,33.0,29.84,NNE,14,1.0,-999.0,94,-99.99,,,0.00,weatherlink.com 1.10,2013-02-23 13:20:00,
2013-02-23 07:35:00,35.4,34.0,29.84,NNE,19,1.0,-999.0,94,-99.99,,,0.00,weatherlink.com 1.10,2013-02-23 13:35:00,
2013-02-23 07:50:00,36.0,34.0,29.84,North,5,0.0,-999.0,93,-99.99,,,0.00,weatherlink.com 1.10,2013-02-23 13:50:00,
2013-02-23 08:05:00,36.5,34.0,29.85,NE,38,1.0,-999.0,92,-99.99,,,0.00,weatherlink.com 1.10,2013-02-23 14:05:00,
2013-02-23 08:20:00,36.6,34.0,29.84,North,5,0.0,-999.0,91,-99.99,,,0.00,weatherlink.com 1.10,2013-02-23 14:20:00,
2013-02-23 08:35:00,36.5,34.0,29.84,North,9,4.0,-999.0,91,-99.99,,,0.00,weatherlink.com 1.10,2013-02-23 14:35:00,
2013-02-23 08:50:00,36.7,34.0,29.84,NE,56,0.0,-999.0,91,-99.99,,,0.00,weatherlink.com 1.10,2013-02-23 14:50:00,
2013-02-23 09:05:00,37.2,35.0,29.83,North,355,0.0,-999.0,91,-99.99,,,0.00,weatherlink.com 1.10,2013-02-23 15:05:00,
2013-02-23 09:20:00,38.0,35.0,29.84,NE,52,0.0,-999.0,89,-99.99,,,0.00,weatherlink.com 1.10,2013-02-23 15:20:00,
2013-02-23 09:35:00,38.9,36.0,29.83,NNE,28,1.0,-999.0,88,-99.99,,,0.00,weatherlink.com 1.10,2013-02-23 15:35:00,
2013-02-23 09:50:00,39.3,36.0,29.82,NNW,327,0.0,-999.0,86,-99.99,,,0.00,weatherlink.com 1.10,2013-02-23 15:50:00,
2013-02-23 10:05:00,40.4,36.0,29.82,North,355,4.0,-999.0,85,-99.99,,,0.00,weatherlink.com 1.10,2013-02-23 16:05:00,
2013-02-23 10:20:00,42.3,37.0,29.82,NNE,17,3.0,-999.0,81,-99.99,,,0.00,weatherlink.com 1.10,2013-02-23 16:20:00,
2013-02-23 10:35:00,42.9,37.0,29.81,NE,44,1.0,-999.0,81,-99.99,,,0.00,weatherlink.com 1.10,2013-02-23 16:35:00,
2013-02-23 10:50:00,44.1,37.0,29.83,North,5,2.0,-999.0,77,-99.99,,,0.00,weatherlink.com 1.10,2013-02-23 16:50:00,
2013-02-23 11:05:00,44.2,38.0,29.83,NNE,22,2.0,-999.0,78,-99.99,,,0.00,weatherlink.com 1.10,2013-02-23 17:05:00,
2013-02-23 11:20:00,45.0,38.0,29.83,North,355,5.0,-999.0,77,-99.99,,,0.00,weatherlink.com 1.10,2013-02-23 17:20:00,
2013-02-23 11:35:00,45.1,38.0,29.82,NNW,330,3.0,-999.0,76,-99.99,,,0.00,weatherlink.com 1.10,2013-02-23 17:35:00,
2013-02-23 11:50:00,45.6,37.0,29.82,WNW,285,2.0,-999.0,73,-99.99,,,0.00,weatherlink.com 1.10,2013-02-23 17:50:00,
2013-02-23 12:05:00,46.0,38.0,29.82,North,5,2.0,-999.0,74,-99.99,,,0.00,weatherlink.com 1.10,2013-02-23 18:05:00,
2013-02-23 12:20:00,47.4,38.0,29.80,NW,322,5.0,-999.0,70,-99.99,,,0.00,weatherlink.com 1.10,2013-02-23 18:20:00,
2013-02-23 12:35:00,48.8,40.0,29.79,NNW,342,1.0,-999.0,72,-99.99,,,0.00,weatherlink.com 1.10,2013-02-23 18:35:00,
2013-02-23 12:50:00,50.2,39.0,29.79,North,355,0.0,-999.0,66,-99.99,,,0.00,weatherlink.com 1.10,2013-02-23 18:50:00,
2013-02-23 13:05:00,50.0,39.0,29.78,NNW,346,0.0,-999.0,66,-99.99,,,0.00,weatherlink.com 1.10,2013-02-23 19:05:00,
2013-02-23 13:20:00,50.4,39.0,29.78,WNW,287,1.0,-999.0,65,-99.99,,,0.00,weatherlink.com 1.10,2013-02-23 19:20:00,
2013-02-23 13:35:00,50.8,40.0,29.77,West,278,2.0,-999.0,66,-99.99,,,0.00,weatherlink.com 1.10,2013-02-23 19:35:00,
2013-02-23 13:50:00,51.9,40.0,29.77,North,355,1.0,-999.0,65,-99.99,,,0.00,weatherlink.com 1.10,2013-02-23 19:50:00,
2013-02-23 14:05:00,52.1,40.0,29.77,NNE,32,0.0,-999.0,63,-99.99,,,0.00,weatherlink.com 1.10,2013-02-23 20:05:00,
2013-02-23 14:20:00,52.4,40.0,29.77,NNE,17,4.0,-999.0,62,-99.99,,,0.00,weatherlink.com 1.10,2013-02-23 20:20:00,
2013-02-23 14:35:00,52.3,39.0,29.77,NW,315,0.0,-999.0,62,-99.99,,,0.00,weatherlink.com 1.10,2013-02-23 20:35:00,
2013-02-23 14:50:00,52.1,39.0,29.76,SW,221,0.0,-999.0,61,-99.99,,,0.00,weatherlink.com 1.10,2013-02-23 20:50:00,
2013-02-23 15:05:00,52.1,40.0,29.77,NNW,329,0.0,-999.0,63,-99.99,,,0.00,weatherlink.com 1.10,2013-02-23 21:05:00,
2013-02-23 15:20:00,52.5,40.0,29.76,NW,306,3.0,-999.0,62,-99.99,,,0.00,weatherlink.com 1.10,2013-02-23 21:20:00,
2013-02-23 15:35:00,52.7,39.0,29.76,NW,307,1.0,-999.0,61,-99.99,,,0.00,weatherlink.com 1.10,2013-02-23 21:35:00,
2013-02-23 15:50:00,52.9,40.0,29.75,NNW,327,1.0,-999.0,61,-99.99,,,0.00,weatherlink.com 1.10,2013-02-23 21:50:00,
2013-02-23 16:05:00,52.8,39.0,29.75,WNW,302,0.0,-999.0,61,-99.99,,,0.00,weatherlink.com 1.10,2013-02-23 22:05:00,
2013-02-23 16:20:00,53.2,39.0,29.74,WNW,300,0.0,-999.0,60,-99.99,,,0.00,weatherlink.com 1.10,2013-02-23 22:20:00,
2013-02-23 16:35:00,52.9,39.0,29.73,NW,310,2.0,-999.0,59,-99.99,,,0.00,weatherlink.com 1.10,2013-02-23 22:35:00,
2013-02-23 16:50:00,51.2,38.0,29.73,NW,321,0.0,-999.0,61,-99.99,,,0.00,weatherlink.com 1.10,2013-02-23 22:50:00,
2013-02-23 17:05:00,50.6,37.0,29.74,WNW,290,0.0,-999.0,61,-99.99,,,0.00,weatherlink.com 1.10,2013-02-23 23:05:00,
2013-02-23 17:20:00,49.9,37.0,29.74,NW,326,0.0,-999.0,62,-99.99,,,0.00,weatherlink.com 1.10,2013-02-23 23:20:00,
2013-02-23 17:35:00,49.0,38.0,29.74,NW,326,0.0,-999.0,65,-99.99,,,0.00,weatherlink.com 1.10,2013-02-23 23:35:00,
2013-02-23 17:50:00,47.5,37.0,29.75,NW,326,0.0,-999.0,68,-99.99,,,0.00,weatherlink.com 1.10,2013-02-23 23:50:00,
2013-02-23 18:05:00,46.5,36.0,29.76,NNW,340,0.0,-999.0,66,-99.99,,,0.00,weatherlink.com 1.10,2013-02-24 00:05:00,
2013-02-23 18:20:00,46.2,35.0,29.77,NNW,346,0.0,-999.0,66,-99.99,,,0.00,weatherlink.com 1.10,2013-02-24 00:20:00,
2013-02-23 18:35:00,44.9,35.0,29.78,NNW,346,0.0,-999.0,69,-99.99,,,0.00,weatherlink.com 1.10,2013-02-24 00:35:00,
2013-02-23 18:50:00,44.2,35.0,29.78,NNW,346,0.0,-999.0,69,-99.99,,,0.00,weatherlink.com 1.10,2013-02-24 00:50:00,
2013-02-23 19:05:00,43.3,34.0,29.79,NNW,346,0.0,-999.0,71,-99.99,,,0.00,weatherlink.com 1.10,2013-02-24 01:05:00,
2013-02-23 19:20:00,41.3,35.0,29.80,NNW,346,0.0,-999.0,77,-99.99,,,0.00,weatherlink.com 1.10,2013-02-24 01:20:00,
2013-02-23 19:35:00,41.0,33.0,29.80,NNW,346,0.0,-999.0,74,-99.99,,,0.00,weatherlink.com 1.10,2013-02-24 01:35:00,
2013-02-23 19:50:00,40.5,33.0,29.80,NNW,346,0.0,-999.0,75,-99.99,,,0.00,weatherlink.com 1.10,2013-02-24 01:50:00,
2013-02-23 20:05:00,39.1,33.0,29.80,NNW,346,0.0,-999.0,78,-99.99,,,0.00,weatherlink.com 1.10,2013-02-24 02:05:00,
2013-02-23 20:20:00,38.3,32.0,29.80,NNW,346,0.0,-999.0,79,-99.99,,,0.00,weatherlink.com 1.10,2013-02-24 02:20:00,
2013-02-23 20:35:00,38.2,32.0,29.81,NNW,346,0.0,-999.0,78,-99.99,,,0.00,weatherlink.com 1.10,2013-02-24 02:35:00,
2013-02-23 20:50:00,38.0,31.0,29.81,NNW,346,0.0,-999.0,77,-99.99,,,0.00,weatherlink.com 1.10,2013-02-24 02:50:00,
2013-02-23 21:05:00,37.4,32.0,29.82,NNW,346,0.0,-999.0,80,-99.99,,,0.00,weatherlink.com 1.10,2013-02-24 03:05:00,
2013-02-23 21:20:00,36.5,31.0,29.82,NNW,346,0.0,-999.0,80,-99.99,,,0.00,weatherlink.com 1.10,2013-02-24 03:20:00,
2013-02-23 21:35:00,35.8,31.0,29.83,NNW,346,0.0,-999.0,81,-99.99,,,0.00,weatherlink.com 1.10,2013-02-24 03:35:00,
2013-02-23 21:50:00,35.7,30.0,29.82,NNW,346,0.0,-999.0,80,-99.99,,,0.00,weatherlink.com 1.10,2013-02-24 03:50:00,
2013-02-23 22:05:00,35.1,30.0,29.82,NNW,346,0.0,-999.0,83,-99.99,,,0.00,weatherlink.com 1.10,2013-02-24 04:05:00,
2013-02-23 22:20:00,34.4,29.0,29.83,NNW,346,0.0,-999.0,82,-99.99,,,0.00,weatherlink.com 1.10,2013-02-24 04:20:00,
2013-02-23 22:35:00,34.4,30.0,29.83,NNW,346,0.0,-999.0,83,-99.99,,,0.00,weatherlink.com 1.10,2013-02-24 04:35:00,
2013-02-23 22:50:00,34.2,29.0,29.83,NNW,346,0.0,-999.0,82,-99.99,,,0.00,weatherlink.com 1.10,2013-02-24 04:50:00,
2013-02-23 23:05:00,33.9,29.0,29.84,NNW,346,0.0,-999.0,83,-99.99,,,0.00,weatherlink.com 1.10,2013-02-24 05:05:00,
2013-02-23 23:20:00,33.5,29.0,29.84,NNW,346,0.0,-999.0,83,-99.99,,,0.00,weatherlink.com 1.10,2013-02-24 05:20:00,
2013-02-23 23:35:00,33.3,29.0,29.83,NNW,346,0.0,-999.0,83,-99.99,,,0.00,weatherlink.com 1.10,2013-02-24 05:35:00,
2013-02-23 23:50:00,32.5,28.0,29.84,NNW,346,0.0,-999.0,84,-99.99,,,0.00,weatherlink.com 1.10,2013-02-24 05:50:00,